Location: ??????
(42.0089°N, 44.3281°E)
Time: 18:18:07
(UTC+00:00)

CZ-2C R/B - Pass Details

Date: 24 October 2021
Orbit: 784 x 871 km, 98.2° (Epoch: 02 December)

Event Time Altitude Azimuth Distance (km) Brightness Sun altitude
Rises 15:18:11 0° 13° (NNE) 3,461 5.7 -13.8°
Reaches altitude 10° 15:20:35 10° 14° (NNE) 2,513 5.0 -14.2°
Maximum altitude 15:26:12 86° 103° (ESE) 861 2.7 -15.3°
Drops below altitude 10° 15:31:40 10° 193° (SSW) 2,449 5.3 -16.3°
Sets 15:33:59 0° 194° (SSW) 3,367 6.0 -16.7°
